QPF
0.00 0.00 0.00 0.00 0.00 0.00 0.00 0.00 0.00 0.00 0.00 0.00 0.00 0.00 0.00 0.00 0.00 0.00 0.00 0.00 0.00 0.00 0.00 0.00 0.00 0.00 0.00 0.00 0.00 0.00 0.00 0.00 0.00 0.00 0.00 0.00 0.00 0.00 0.00 0.00 0.00 0.00 0.00
0.00 0.00 0.00 0.00 0.00 0.00 0.00 0.00 0.00 0.00 0.00 0.00 0.00 0.00 0.00 0.00 0.00 0.00 0.00 0.00 0.00 0.00 0.00 0.00 0.00 0.00 0.00 0.00 0.00 0.00 0.00 0.00 0.00 0.00 0.00 0.00 0.00 0.00 0.00 0.00 0.00 0.00 0.00
0.00 0.00 0.00 0.00 0.00 0.00 0.00 0.00 0.00 0.00 0.00 0.00 0.00 0.00 0.00 0.00 0.00 0.00 0.00 0.00 0.00 0.00 0.00 0.00 0.00 0.00 0.00 0.00 0.00 0.00 0.00 0.00 0.00 0.00 0.00 0.00 0.00 0.00 0.00 0.00 0.00 0.00 0.00
0.00 0.00 0.00 0.00 0.00 0.00 0.00 0.00 0.00 0.00 0.00 0.00 0.00 0.00 0.00 0.00 0.00 0.00 0.00 0.00 0.00 0.00 0.00 0.00 0.00 0.00 0.00 0.00 0.00 0.00 0.00 0.00 0.00 0.00 0.00 0.00 0.00 0.00 0.00 0.00 0.00 0.00 0.00
0.00 0.00 0.00 0.00 0.00 0.00 0.00 0.00 0.00 0.00 0.00 0.00 0.00 0.00 0.00 0.00 0.00 0.00 0.00 0.00 0.00 0.00 0.00 0.00 0.00 0.00 0.00 0.00 0.00 0.00 0.00 0.00 0.00 0.00 0.00 0.00 0.00 0.00 0.00 0.00 0.00 0.00 0.00
0.00 0.00 0.00 0.00 0.00 0.00 0.00 0.00 0.00 0.00 0.00 0.00 0.00 0.00 0.00 0.00 0.00 0.00 0.00 0.00 0.00 0.00 0.00 0.00 0.00 0.00 0.00 0.00 0.00 0.00 0.00 0.00 0.00 0.00 0.00 0.00 0.00 0.00 0.00 0.00 0.00 0.00 0.00
0.00 0.00 0.00 0.00 0.00 0.00 0.00 0.00 0.00 0.00 0.00 0.00 0.00 0.00 0.00 0.00 0.00 0.00 0.00 0.00 0.00 0.00 0.00 0.00 0.00 0.00 0.00 0.00 0.00 0.00 0.00 0.00 0.00 0.00 0.00 0.00 0.00 0.00 0.00 0.00 0.00 0.00 0.00
0.00 0.00 0.00 0.00 0.00 0.00 0.00 0.00 0.00 0.00 0.00 0.00 0.00 0.00 0.00 0.00 0.00 0.00 0.00 0.00 0.00 0.00 0.00 0.00 0.00 0.00 0.00 0.00 0.00 0.00 0.00 0.00 0.00 0.00 0.00 0.00 0.00 0.00 0.00 0.00 0.00 0.00 0.00
0.00 0.00 0.00 0.00 0.00 0.00 0.00 0.00 0.00 0.00 0.00 0.00 0.00 0.00 0.00 0.00 0.00 0.00 0.00 0.00 0.00 0.00 0.00 0.00 0.00 0.00 0.00 0.00 0.00 0.00 0.00 0.00 0.00 0.00 0.00 0.00 0.00 0.00 0.00 0.00 0.00 0.00 0.00
0.00 0.00 0.00 0.00 0.00 0.00 0.00 0.00 0.00 0.00 0.00 0.00 0.00 0.00 0.00 0.00 0.00 0.00 0.00 0.00 0.00 0.00 0.00 0.00 0.00 0.00 0.00 0.00 0.00 0.00 0.00 0.00 0.00 0.00 0.00 0.00 0.00 0.00 0.00 0.00 0.00 0.00 0.00
0.00 0.00 0.00 0.00 0.00 0.00 0.00 0.00 0.00 0.00 0.00 0.00 0.00 0.00 0.00 0.00 0.00 0.00 0.00 0.00 0.00 0.00 0.00 0.00 0.00 0.00 0.00 0.00 0.00 0.00 0.00 0.00 0.00 0.00 0.00 0.00 0.00 0.00 0.00 0.00 0.00 0.00 0.00
0.00 0.00 0.00 0.00 0.00 0.00 0.00 0.00 0.00 0.00 0.00 0.00 0.00 0.00 0.00 0.00 0.00 0.00 0.00 0.00 0.00 0.00 0.00 0.00 0.00 0.00 0.00 0.00 0.00 0.00 0.00 0.00 0.00 0.00 0.00 0.00 0.00 0.00 0.00 0.00 0.00 0.00 0.00
0.00 0.00 0.00 0.00 0.00 0.00 0.00 0.00 0.00 0.00 0.00 0.00 0.00 0.00 0.00 0.00 0.00 0.00 0.00 0.00 0.00 0.00 0.00 0.00 0.00 0.00 0.00 0.00 0.00 0.00 0.00 0.00 0.00 0.00 0.00 0.00 0.00 0.00 0.00 0.00 0.00 0.00 0.00
0.00 0.00 0.00 0.00 0.00 0.00 0.00 0.00 0.00 0.00 0.00 0.00 0.00 0.00 0.00 0.00 0.00 0.00 0.00 0.00 0.00 0.00 0.00 0.00 0.00 0.00 0.00 0.00 0.00 0.00 0.00 0.00 0.00 0.00 0.00 0.00 0.00 0.00 0.00 0.00 0.00 0.00 0.00
0.00 0.00 0.00 0.00 0.00 0.00 0.00 0.00 0.00 0.00 0.00 0.00 0.00 0.00 0.00 0.00 0.00 0.00 0.00 0.00 0.00 0.00 0.00 0.00 0.00 0.00 0.00 0.00 0.00 0.00 0.00 0.00 0.00 0.00 0.00 0.00 0.00 0.00 0.00 0.00 0.00 0.00 0.00
0.00 0.00 0.00 0.00 0.00 0.00 0.00 0.00 0.00 0.00 0.00 0.00 0.00 0.00 0.00 0.00 0.00 0.00 0.00 0.00 0.00 0.00 0.00 0.00 0.00 0.00 0.00 0.00 0.00 0.00 0.00 0.00 0.00 0.00 0.00 0.00 0.00 0.00 0.00 0.00 0.00 0.00 0.00
0.00 0.00 0.00 0.00 0.00 0.00 0.00 0.00 0.00 0.00 0.00 0.00 0.00 0.00 0.00 0.00 0.00 0.00 0.00 0.00 0.00 0.00 0.00 0.00 0.00 0.00 0.00 0.00 0.00 0.00 0.00 0.00 0.00 0.00 0.00 0.00 0.00 0.00 0.00 0.00 0.00 0.00 0.00
0.00 0.00 0.00 0.00 0.00 0.00 0.00 0.00 0.00 0.00 0.00 0.00 0.00 0.00 0.00 0.00 0.00 0.00 0.00 0.00 0.00 0.00 0.00 0.00 0.00 0.00 0.00 0.00 0.00 0.00 0.00 0.00 0.00 0.00 0.00 0.00 0.00 0.00 0.00 0.00 0.00 0.00 0.00
0.00 0.00 0.00 0.00 0.00 0.00 0.00 0.00 0.00 0.00 0.00 0.00 0.00 0.00 0.00 0.00 0.00 0.00 0.00 0.00 0.00 0.00 0.00 0.00 0.00 0.00 0.00 0.00 0.00 0.00 0.00 0.00 0.00 0.00 0.00 0.00 0.00 0.00 0.00 0.00 0.00 0.00 0.00
0.00 0.00 0.00 0.00 0.00 0.00 0.00 0.00 0.00 0.00 0.00 0.00 0.00 0.00 0.00 0.00 0.00 0.00 0.00 0.00 0.00 0.00 0.00 0.00 0.00 0.00 0.00 0.00 0.00 0.00 0.00 0.00 0.00 0.00 0.00 0.00 0.00 0.00 0.00 0.00 0.00 0.00 0.00
0.00 0.00 0.00 0.00 0.00 0.00 0.00 0.00 0.00 0.00 0.00 0.00 0.00 0.00 0.00 0.00 0.00 0.00 0.00 0.00 0.00 0.00 0.00 0.00 0.00 0.00 0.00 0.00 0.00 0.00 0.00 0.00 0.00 0.00 0.00 0.00 0.00 0.00 0.00 0.00 0.00 0.00 0.00
0.00 0.00 0.00 0.00 0.00 0.00 0.00 0.00 0.00 0.00 0.00 0.00 0.00 0.00 0.00 0.00 0.00 0.00 0.00 0.00 0.00 0.00 0.00 0.00 0.00 0.00 0.00 0.00 0.00 0.00 0.00 0.00 0.00 0.00 0.00 0.00 0.00 0.00 0.00 0.00 0.00 0.00 0.00
0.00 0.00 0.00 0.00 0.00 0.00 0.00 0.00 0.00 0.00 0.00 0.00 0.00 0.00 0.00 0.00 0.00 0.00 0.00 0.00 0.00 0.00 0.00 0.00 0.00 0.00 0.00 0.00 0.00 0.00 0.00 0.00 0.00 0.00 0.00 0.00 0.00 0.00 0.00 0.00 0.00 0.00 0.00
0.00 0.00 0.00 0.00 0.00 0.00 0.00 0.00 0.00 0.00 0.00 0.00 0.00 0.00 0.00 0.00 0.00 0.00 0.00 0.00 0.00 0.00 0.00 0.00 0.00 0.00 0.00 0.00 0.00 0.00 0.00 0.00 0.00 0.00 0.00 0.00 0.00 0.00 0.00 0.00 0.00 0.00 0.00
0.00 0.00 0.00 0.00 0.00 0.00 0.00 0.00 0.00 0.00 0.00 0.00 0.00 0.00 0.00 0.00 0.00 0.00 0.00 0.00 0.00 0.00 0.00 0.00 0.00 0.00 0.00 0.00 0.00 0.00 0.00 0.00 0.00 0.00 0.00 0.00 0.00 0.00 0.00 0.00 0.00 0.00 0.00
0.00 0.00 0.00 0.00 0.00 0.00 0.00 0.00 0.00 0.00 0.00 0.00 0.00 0.00 0.00 0.00 0.00 0.00 0.00 0.00 0.00 0.00 0.00 0.00 0.00 0.00 0.00 0.00 0.00 0.00 0.00 0.00 0.00 0.00 0.00 0.00 0.00 0.00 0.00 0.00 0.00 0.00 0.00
MSLP
1023.96 1023.71 1023.33 1022.92 1022.59 1022.16 1021.82 1021.38 1020.86 1020.47 1020.19 1020.17 1020.56 1020.94 1021.28 1021.57 1021.86 1022.08 1022.76 1022.55 1024.12 1024.21 1024.34 1024.61 1024.84 1024.98 1025.17 1025.44 1025.46 1025.48 1025.55 1025.96 1026.57 1027.38 1027.75 1028.33 1029.21 1029.51 1029.58 1029.53 1029.56 1029.45 1029.26
1024.41 1024.00 1023.68 1023.27 1022.92 1022.65 1022.29 1021.91 1021.44 1020.83 1020.38 1020.22 1020.28 1020.68 1021.01 1021.45 1021.43 1022.05 1022.58 1022.70 1023.50 1023.76 1024.34 1024.52 1024.70 1025.03 1025.15 1025.29 1025.39 1025.51 1025.55 1025.93 1026.31 1026.91 1027.65 1028.44 1029.14 1029.65 1029.60 1029.67 1029.93 1029.94 1029.76
1024.59 1024.40 1024.03 1023.66 1023.24 1022.88 1022.67 1022.20 1021.65 1021.07 1020.44 1020.18 1020.31 1020.52 1020.76 1020.96 1021.34 1021.69 1021.88 1022.44 1022.54 1023.28 1023.91 1024.28 1024.55 1024.86 1025.04 1025.10 1025.36 1025.58 1025.81 1025.96 1026.15 1026.52 1027.27 1028.14 1029.19 1029.48 1029.55 1029.77 1030.10 1030.26 1030.15
1024.74 1024.48 1024.39 1024.05 1023.69 1023.26 1022.86 1022.45 1021.89 1021.38 1020.70 1020.29 1020.18 1020.36 1020.53 1020.78 1021.13 1021.43 1021.60 1021.84 1022.45 1023.06 1023.54 1023.87 1024.13 1024.53 1024.83 1024.84 1025.17 1025.56 1025.95 1026.16 1026.32 1026.74 1027.35 1027.99 1028.88 1029.36 1029.36 1029.59 1030.08 1030.24 1030.24
1025.05 1024.95 1024.71 1024.34 1024.07 1023.57 1023.03 1022.50 1022.07 1021.61 1020.96 1020.41 1020.36 1020.26 1020.37 1020.51 1020.75 1021.18 1021.43 1021.60 1022.08 1022.92 1023.33 1023.34 1023.83 1024.25 1024.58 1024.68 1024.83 1025.40 1025.96 1026.31 1026.59 1026.92 1027.46 1028.00 1028.62 1029.05 1029.06 1029.43 1029.74 1029.99 1030.24
1025.42 1025.36 1024.93 1024.49 1024.19 1023.84 1023.27 1022.82 1022.15 1021.76 1021.23 1020.60 1020.25 1020.29 1020.31 1020.37 1020.27 1020.63 1020.99 1021.36 1021.81 1022.45 1022.95 1023.16 1023.58 1024.14 1024.33 1024.59 1024.79 1025.00 1025.65 1026.11 1026.51 1026.91 1027.36 1027.66 1028.06 1028.48 1028.76 1029.10 1029.42 1029.79 1030.04
1025.38 1025.23 1025.03 1024.72 1024.37 1023.81 1023.38 1022.90 1022.44 1021.84 1021.35 1020.84 1020.24 1020.09 1020.01 1020.05 1020.21 1020.32 1020.57 1021.04 1021.60 1022.10 1022.47 1022.78 1023.34 1023.73 1024.14 1024.42 1024.70 1025.07 1025.62 1026.05 1026.39 1026.84 1027.26 1027.56 1028.00 1028.39 1028.62 1029.05 1029.24 1029.55 1029.85
1024.81 1024.88 1024.68 1024.52 1024.30 1023.64 1023.31 1022.91 1022.42 1021.93 1021.50 1020.86 1020.22 1019.77 1019.67 1019.65 1019.97 1020.11 1020.27 1020.63 1021.37 1021.62 1022.06 1022.31 1022.86 1023.31 1023.77 1024.16 1024.59 1025.23 1025.79 1026.20 1026.58 1027.00 1027.21 1027.61 1028.00 1028.37 1028.57 1028.84 1029.27 1029.69 1030.11
1024.10 1024.13 1024.14 1024.14 1024.15 1023.75 1023.40 1022.80 1022.22 1021.73 1021.19 1020.72 1020.11 1019.61 1019.29 1019.23 1019.45 1019.88 1020.09 1020.42 1020.97 1021.35 1021.69 1021.89 1022.54 1022.94 1023.20 1023.82 1024.44 1025.10 1025.81 1026.30 1026.55 1027.06 1027.49 1027.69 1028.06 1028.49 1028.86 1029.15 1029.44 1029.52 1029.92
1022.97 1023.00 1023.12 1023.34 1023.46 1023.52 1023.00 1022.53 1022.01 1021.65 1021.03 1020.39 1019.82 1019.29 1018.89 1018.80 1018.99 1019.23 1019.57 1019.99 1020.51 1021.10 1021.62 1021.73 1022.25 1022.48 1022.94 1023.55 1024.32 1024.77 1025.59 1026.13 1026.76 1027.35 1027.73 1028.07 1028.63 1028.93 1029.15 1029.31 1029.38 1029.33 1029.63
1021.68 1022.02 1022.36 1022.58 1022.72 1022.62 1022.32 1022.01 1021.63 1021.19 1020.64 1020.13 1019.42 1018.74 1018.52 1018.39 1018.52 1018.59 1018.96 1019.44 1019.73 1020.31 1020.88 1021.32 1021.64 1022.07 1022.66 1023.20 1024.05 1024.50 1025.11 1025.86 1026.71 1027.55 1028.26 1028.98 1029.35 1029.56 1029.79 1029.91 1029.89 1029.79 1029.80
1021.04 1021.41 1021.49 1021.63 1021.85 1021.87 1021.78 1021.39 1021.13 1020.84 1020.25 1019.58 1018.98 1018.40 1018.06 1017.89 1018.02 1018.25 1018.29 1018.78 1019.18 1019.52 1019.84 1020.48 1020.97 1021.62 1022.19 1022.81 1023.75 1024.25 1024.82 1025.70 1026.66 1027.64 1028.39 1029.14 1029.52 1029.73 1030.14 1030.46 1030.53 1030.52 1030.44
1020.67 1020.48 1020.51 1020.75 1020.94 1021.05 1021.15 1020.81 1020.53 1020.27 1019.97 1019.15 1018.55 1017.92 1017.49 1017.44 1017.52 1017.83 1017.85 1018.06 1018.54 1019.13 1019.39 1019.80 1020.47 1021.13 1021.86 1022.49 1023.34 1023.98 1024.56 1025.48 1026.43 1027.47 1028.08 1028.77 1029.34 1029.53 1030.04 1030.35 1030.49 1030.77 1031.00
1019.93 1019.82 1019.77 1019.99 1020.13 1020.35 1020.35 1020.14 1019.96 1019.57 1019.28 1018.75 1018.16 1017.57 1017.00 1016.93 1017.13 1017.39 1017.46 1017.51 1017.86 1018.49 1019.15 1019.65 1020.11 1020.74 1021.40 1022.10 1023.06 1023.85 1024.57 1025.11 1025.74 1026.67 1027.54 1028.58 1029.51 1029.86 1029.89 1029.90 1030.22 1030.51 1030.92
1019.49 1019.28 1019.20 1019.20 1019.33 1019.53 1019.51 1019.37 1019.16 1018.67 1018.52 1018.19 1017.63 1017.20 1016.47 1016.14 1016.34 1016.47 1016.70 1016.80 1016.99 1017.60 1018.71 1019.36 1019.84 1020.40 1021.02 1021.89 1022.76 1023.59 1024.36 1025.00 1025.57 1026.38 1027.30 1028.20 1029.05 1029.55 1029.76 1029.85 1030.10 1030.42 1030.75
1019.50 1018.94 1018.75 1018.78 1018.83 1018.87 1018.78 1018.47 1018.29 1017.79 1017.49 1017.25 1016.80 1016.53 1015.87 1015.47 1015.43 1015.68 1015.91 1016.08 1016.26 1016.88 1017.95 1018.55 1019.20 1019.48 1019.99 1020.85 1021.93 1023.02 1023.79 1024.38 1024.98 1025.79 1026.66 1027.44 1028.21 1028.89 1029.42 1029.80 1029.99 1030.22 1030.83
1019.50 1018.94 1018.61 1018.39 1018.29 1018.30 1018.33 1018.13 1017.50 1016.73 1016.67 1016.21 1015.77 1015.28 1014.83 1014.44 1014.56 1014.67 1015.07 1015.49 1015.68 1016.17 1016.64 1017.54 1018.15 1018.71 1019.04 1019.79 1020.77 1021.77 1022.54 1023.42 1024.26 1025.08 1025.86 1026.71 1027.62 1028.32 1029.10 1029.55 1029.78 1030.21 1031.06
1018.97 1018.51 1018.21 1017.83 1017.66 1017.63 1017.66 1017.47 1017.31 1016.87 1016.09 1015.22 1014.82 1014.41 1013.59 1013.18 1013.35 1013.60 1014.08 1014.66 1014.74 1015.01 1015.39 1016.26 1017.00 1017.65 1018.21 1018.95 1019.72 1020.74 1021.77 1022.84 1023.62 1024.41 1025.26 1026.12 1026.98 1027.77 1028.62 1029.05 1029.44 1029.97 1030.95
1018.33 1017.86 1017.50 1017.21 1017.04 1016.98 1016.98 1016.82 1016.66 1016.45 1015.93 1015.12 1014.17 1013.41 1012.81 1012.15 1012.09 1012.29 1012.92 1013.18 1013.41 1013.71 1014.28 1015.11 1015.77 1016.45 1017.07 1018.00 1018.90 1019.84 1020.80 1021.75 1022.55 1023.57 1024.59 1025.46 1026.36 1027.26 1028.04 1028.53 1029.15 1029.91 1030.98
1017.47 1017.20 1016.92 1016.56 1016.37 1016.28 1016.16 1016.02 1015.84 1015.61 1015.19 1014.58 1013.78 1012.72 1012.06 1011.49 1011.13 1011.14 1011.45 1011.86 1012.29 1012.56 1013.39 1014.05 1014.89 1015.52 1015.91 1016.76 1017.84 1018.95 1020.20 1021.18 1022.00 1022.83 1023.79 1024.77 1025.71 1026.64 1027.44 1028.10 1029.02 1029.76 1030.64
1016.50 1016.17 1015.98 1015.90 1015.62 1015.45 1015.23 1014.91 1014.72 1014.54 1014.05 1013.40 1012.52 1011.71 1011.09 1010.46 1010.09 1009.97 1010.16 1010.58 1011.13 1011.55 1012.40 1013.29 1014.01 1014.60 1015.20 1015.98 1016.93 1018.15 1019.21 1020.14 1021.05 1021.94 1023.02 1024.08 1025.10 1026.01 1026.89 1027.64 1028.62 1029.54 1030.40
1015.35 1015.08 1014.92 1014.69 1014.51 1014.26 1014.01 1013.83 1013.56 1013.17 1012.66 1012.17 1011.21 1010.48 1009.78 1009.27 1008.91 1008.92 1009.02 1009.40 1009.98 1010.65 1011.38 1012.28 1013.14 1013.69 1014.31 1014.98 1015.83 1016.94 1018.04 1019.10 1020.16 1021.08 1022.25 1023.36 1024.58 1025.32 1026.33 1027.33 1028.40 1029.42 1030.32
1013.98 1013.82 1013.63 1013.45 1013.26 1013.03 1012.81 1012.48 1012.14 1011.63 1011.13 1010.67 1010.02 1009.31 1008.57 1007.96 1007.92 1007.94 1008.08 1008.43 1009.06 1009.78 1010.40 1011.36 1012.28 1013.10 1013.87 1014.67 1015.24 1015.81 1016.70 1017.74 1018.70 1019.87 1021.28 1022.67 1023.85 1024.76 1025.60 1026.76 1027.98 1029.12 1030.05
1012.50 1012.43 1012.30 1012.02 1011.81 1011.55 1011.21 1010.91 1010.64 1010.47 1010.14 1009.64 1009.10 1008.52 1008.12 1007.36 1007.23 1007.14 1007.25 1007.74 1008.34 1009.05 1009.69 1010.59 1011.47 1012.29 1013.28 1014.19 1014.86 1015.51 1016.27 1017.10 1018.09 1019.16 1020.21 1021.61 1022.96 1024.09 1025.11 1026.17 1027.37 1028.50 1029.42
1011.37 1011.17 1010.92 1010.63 1010.41 1010.25 1010.19 1010.04 1009.88 1009.75 1009.58 1009.18 1008.80 1008.42 1007.96 1007.73 1007.49 1007.35 1007.47 1007.65 1008.05 1008.61 1009.27 1010.13 1010.93 1011.81 1012.64 1013.47 1014.31 1015.08 1015.87 1016.63 1017.62 1018.73 1019.99 1021.02 1022.10 1023.07 1024.31 1025.50 1026.90 1028.16 1028.99
1010.84 1010.63 1010.48 1010.30 1010.17 1010.01 1009.90 1009.90 1009.91 1009.78 1009.55 1009.30 1008.92 1008.53 1008.37 1008.31 1008.21 1008.10 1008.17 1008.34 1008.63 1009.00 1009.46 1010.10 1010.72 1011.49 1012.43 1013.22 1013.94 1014.69 1015.58 1016.38 1017.52 1018.54 1019.57 1020.65 1021.53 1022.89 1023.95 1025.05 1026.41 1027.48 1028.62
Thickness
5432 5435 5440 5445 5450 5456 5462 5469 5477 5483 5490 5495 5496 5496 5498 5501 5503 5506 5504 5512 5500 5506 5508 5509 5513 5517 5520 5522 5525 5528 5529 5527 5526 5519 5517 5512 5507 5504 5503 5503 5500 5498 5495
5418 5424 5428 5433 5438 5442 5448 5454 5461 5469 5476 5483 5487 5488 5489 5490 5496 5496 5495 5501 5497 5500 5499 5501 5504 5507 5511 5515 5517 5520 5522 5520 5519 5517 5512 5506 5502 5498 5498 5496 5492 5489 5486
5404 5409 5415 5420 5425 5430 5434 5441 5447 5454 5464 5471 5476 5478 5480 5482 5485 5486 5492 5493 5497 5494 5492 5494 5496 5498 5503 5508 5510 5511 5512 5513 5513 5513 5509 5502 5495 5493 5492 5489 5485 5481 5478
5387 5393 5398 5404 5411 5417 5421 5427 5434 5441 5450 5458 5464 5468 5471 5473 5474 5476 5480 5484 5485 5485 5486 5487 5489 5491 5495 5500 5502 5503 5503 5503 5505 5504 5501 5497 5490 5488 5487 5485 5480 5475 5472
5368 5372 5377 5385 5392 5400 5408 5415 5421 5427 5436 5444 5450 5456 5460 5464 5466 5467 5469 5471 5476 5475 5476 5481 5482 5484 5487 5492 5495 5495 5494 5494 5495 5495 5493 5491 5486 5484 5484 5479 5476 5472 5467
5346 5351 5359 5366 5374 5383 5391 5399 5407 5413 5421 5429 5438 5443 5449 5453 5459 5460 5462 5463 5464 5468 5469 5473 5475 5476 5479 5483 5486 5489 5488 5487 5487 5487 5486 5486 5485 5482 5480 5476 5473 5469 5467
5325 5332 5340 5346 5355 5365 5374 5383 5391 5399 5407 5415 5425 5431 5438 5443 5447 5451 5454 5455 5455 5457 5462 5466 5467 5468 5471 5475 5477 5479 5479 5479 5480 5480 5480 5480 5479 5476 5474 5470 5468 5466 5461
5307 5314 5321 5327 5336 5347 5355 5365 5374 5383 5391 5402 5411 5420 5427 5432 5436 5441 5445 5448 5446 5449 5453 5458 5460 5461 5464 5468 5469 5470 5470 5470 5471 5472 5472 5472 5472 5469 5467 5465 5462 5457 5451
5290 5298 5304 5309 5318 5326 5337 5347 5358 5368 5378 5388 5399 5408 5416 5421 5426 5429 5434 5438 5439 5441 5445 5451 5451 5453 5458 5459 5461 5461 5460 5461 5462 5462 5462 5464 5462 5461 5459 5457 5455 5454 5449
5273 5280 5284 5291 5300 5308 5320 5329 5340 5351 5362 5374 5386 5396 5406 5412 5416 5422 5425 5429 5431 5432 5434 5440 5442 5446 5449 5451 5452 5454 5452 5454 5454 5453 5453 5453 5452 5451 5451 5449 5448 5451 5447
5253 5261 5265 5272 5281 5291 5303 5313 5324 5335 5348 5358 5372 5386 5395 5402 5406 5413 5417 5420 5425 5427 5430 5433 5435 5438 5439 5441 5443 5446 5447 5447 5445 5443 5441 5440 5440 5441 5441 5440 5440 5439 5440
5237 5242 5248 5254 5262 5272 5284 5296 5307 5318 5332 5347 5360 5373 5383 5392 5396 5401 5409 5411 5416 5421 5426 5427 5428 5430 5432 5433 5434 5438 5440 5439 5436 5434 5433 5431 5431 5433 5431 5431 5431 5429 5427
5223 5232 5236 5237 5245 5253 5263 5276 5290 5302 5314 5331 5345 5361 5373 5379 5386 5391 5398 5403 5408 5411 5415 5419 5420 5422 5424 5425 5428 5430 5433 5432 5430 5427 5427 5426 5425 5425 5423 5422 5422 5420 5417
5217 5222 5225 5226 5230 5234 5244 5257 5270 5285 5298 5313 5330 5345 5360 5369 5374 5379 5386 5393 5399 5403 5404 5408 5412 5415 5418 5419 5420 5422 5423 5425 5425 5425 5423 5418 5417 5416 5416 5416 5416 5414 5411
5204 5211 5213 5216 5217 5219 5226 5237 5251 5269 5282 5297 5312 5329 5347 5360 5364 5370 5378 5385 5392 5396 5394 5398 5402 5407 5411 5412 5414 5413 5414 5415 5417 5416 5413 5412 5410 5409 5409 5409 5409 5408 5407
5188 5197 5201 5202 5204 5207 5211 5221 5234 5250 5267 5284 5299 5314 5332 5347 5357 5362 5369 5377 5383 5387 5388 5392 5396 5403 5406 5408 5409 5405 5406 5408 5411 5410 5410 5409 5407 5405 5403 5402 5403 5403 5398
5168 5178 5182 5185 5189 5193 5195 5202 5216 5234 5250 5270 5287 5303 5321 5337 5347 5355 5360 5366 5374 5378 5385 5387 5392 5396 5402 5404 5405 5404 5405 5405 5405 5406 5407 5405 5401 5400 5398 5397 5398 5396 5389
5153 5162 5167 5174 5176 5179 5183 5188 5196 5210 5228 5256 5273 5289 5312 5329 5340 5349 5353 5358 5369 5377 5383 5384 5389 5393 5397 5399 5400 5400 5401 5400 5402 5402 5401 5398 5396 5395 5392 5393 5393 5392 5385
5139 5148 5154 5160 5164 5169 5172 5176 5182 5192 5209 5232 5257 5279 5299 5319 5332 5343 5348 5358 5369 5377 5381 5382 5387 5391 5394 5394 5396 5397 5398 5398 5399 5397 5395 5393 5391 5389 5388 5389 5387 5384 5377
5126 5132 5138 5146 5152 5157 5162 5167 5174 5182 5194 5216 5240 5266 5285 5306 5325 5339 5348 5357 5366 5375 5376 5378 5380 5385 5391 5392 5394 5393 5391 5391 5391 5392 5390 5387 5385 5384 5384 5383 5379 5377 5374
5115 5120 5125 5132 5140 5147 5153 5161 5168 5175 5187 5208 5234 5256 5277 5300 5319 5335 5347 5356 5363 5371 5372 5372 5376 5379 5384 5386 5387 5386 5385 5386 5387 5387 5384 5382 5380 5380 5378 5377 5374 5371 5367
5107 5111 5115 5122 5131 5141 5149 5154 5161 5171 5184 5202 5229 5252 5274 5297 5317 5332 5345 5354 5360 5365 5367 5367 5370 5374 5378 5381 5383 5383 5383 5383 5381 5381 5379 5377 5374 5375 5372 5370 5367 5362 5360
5102 5104 5106 5114 5125 5135 5143 5151 5160 5171 5184 5201 5226 5251 5276 5300 5316 5330 5342 5351 5357 5360 5363 5363 5363 5366 5368 5371 5375 5380 5381 5380 5380 5378 5374 5370 5369 5367 5367 5363 5360 5356 5353
5103 5105 5109 5118 5126 5135 5144 5152 5160 5168 5180 5201 5225 5250 5270 5294 5312 5327 5339 5347 5353 5356 5359 5358 5359 5361 5362 5363 5366 5370 5372 5374 5374 5373 5372 5368 5363 5361 5359 5357 5354 5351 5349
5104 5110 5116 5123 5129 5135 5139 5145 5153 5162 5176 5197 5220 5241 5261 5280 5297 5313 5325 5337 5345 5350 5352 5352 5352 5353 5355 5357 5359 5361 5364 5366 5366 5364 5362 5361 5359 5359 5355 5353 5348 5344 5342
5104 5108 5112 5116 5121 5126 5132 5139 5147 5160 5176 5196 5217 5237 5254 5270 5285 5299 5311 5322 5329 5336 5341 5344 5345 5346 5347 5348 5351 5353 5354 5355 5355 5354 5354 5352 5353 5350 5348 5346 5341 5339 5335